• In Belarus
  • List of Countries
  • For 7 days
  • Water Temperature
  • Satellite Maps
  • Weather Map
  • Weather Widgets
  • user-avatar
    Login

    Hourly Weather Armawir

    Today, 23 May, Wednesday

    Time Temperature Precipitation Wind Pressure Humidity
    00:00 +19°C° 0.6 mm 1 mps 690 mmHg 78%
    01:00 +19°C° 0.2 mm 1 mps 690 mmHg 79%
    02:00 +19°C° 0.2 mm 1 mps 690 mmHg 80%
    03:00 +18°C° 0 mm 1 mps 689 mmHg 82%
    04:00 +18°C° 0.1 mm 1 mps 690 mmHg 80%
    05:00 +19°C° 0.1 mm 1 mps 690 mmHg 78%
    06:00 +19°C° 0.1 mm 1 mps 690 mmHg 76%
    07:00 +21°C° 0 mm 1 mps 690 mmHg 70%
    08:00 +21°C° 0 mm 2 mps 690 mmHg 64%
    09:00 +23°C° 0 mm 2 mps 691 mmHg 59%
    10:00 +24°C° 0.2 mm 2 mps 690 mmHg 56%
    11:00 +25°C° 0.2 mm 3 mps 690 mmHg 52%
    12:00 +26°C° 0.2 mm 3 mps 690 mmHg 49%
    13:00 +27°C° 0.4 mm 3 mps 690 mmHg 47%
    14:00 +27°C° 0.4 mm 4 mps 690 mmHg 45%
    15:00 +27°C° 0 mm 4 mps 690 mmHg 46%
    16:00 +26°C° 0.2 mm 4 mps 690 mmHg 48%
    17:00 +26°C° 0.2 mm 4 mps 690 mmHg 50%
    18:00 +25°C° 0.2 mm 3 mps 690 mmHg 52%
    19:00 +22°C° 0.1 mm 3 mps 690 mmHg 56%
    20:00 +21°C° 0.1 mm 3 mps 689 mmHg 59%
    21:00 +19°C° 0.1 mm 2 mps 689 mmHg 63%
    22:00 +19°C° 0 mm 2 mps 689 mmHg 63%
    23:00 +18°C° 0 mm 2 mps 689 mmHg 64%

    Tomorrow, 24 May, Thursday

    Time Temperature Precipitation Wind Pressure Humidity
    00:00 +18°C° 0 mm 2 mps 689 mmHg 64%
    01:00 +17°C° 0 mm 2 mps 689 mmHg 64%
    02:00 +17°C° 0 mm 2 mps 689 mmHg 65%
    03:00 +16°C° 0 mm 2 mps 688 mmHg 65%
    04:00 +18°C° 0.1 mm 1 mps 688 mmHg 65%
    05:00 +18°C° 0.1 mm 1 mps 689 mmHg 65%
    06:00 +19°C° 0.1 mm 1 mps 689 mmHg 65%
    07:00 +20°C° 0.2 mm 1 mps 688 mmHg 60%
    08:00 +21°C° 0.2 mm 1 mps 688 mmHg 55%
    09:00 +23°C° 0.2 mm 1 mps 688 mmHg 49%
    10:00 +24°C° 0 mm 2 mps 688 mmHg 46%
    11:00 +25°C° 0 mm 2 mps 688 mmHg 43%
    12:00 +27°C° 0 mm 2 mps 687 mmHg 40%
    13:00 +27°C° 0.3 mm 3 mps 687 mmHg 40%
    14:00 +27°C° 0.3 mm 3 mps 687 mmHg 40%
    15:00 +27°C° 0.3 mm 3 mps 686 mmHg 40%
    16:00 +27°C° 0.4 mm 3 mps 686 mmHg 43%
    17:00 +26°C° 0.4 mm 2 mps 686 mmHg 47%
    18:00 +25°C° 0.4 mm 2 mps 686 mmHg 50%
    19:00 +24°C° 0.3 mm 2 mps 686 mmHg 55%
    20:00 +21°C° 0.3 mm 2 mps 686 mmHg 59%
    21:00 +20°C° 0.3 mm 2 mps 686 mmHg 63%
    22:00 +20°C° 0.1 mm 1 mps 686 mmHg 64%
    23:00 +19°C° 0.1 mm 1 mps 686 mmHg 65%

    Day after tomorrow, 25 May, Friday

    Time Temperature Precipitation Wind Pressure Humidity
    00:00 +19°C° 0.1 mm 1 mps 685 mmHg 66%
    01:00 +18°C° 0 mm 1 mps 685 mmHg 67%
    02:00 +18°C° 0 mm 1 mps 685 mmHg 67%
    03:00 +16°C° 0 mm 1 mps 685 mmHg 68%
    04:00 +18°C° 0 mm 1 mps 685 mmHg 66%
    05:00 +19°C° 0 mm 1 mps 685 mmHg 64%
    06:00 +20°C° 0 mm 1 mps 685 mmHg 62%
    07:00 +21°C° 0 mm 1 mps 685 mmHg 58%
    08:00 +22°C° 0 mm 1 mps 685 mmHg 54%
    09:00 +23°C° 0 mm 1 mps 685 mmHg 50%
    10:00 +24°C° 0.1 mm 2 mps 685 mmHg 48%
    11:00 +25°C° 0.1 mm 2 mps 684 mmHg 47%
    12:00 +26°C° 0.1 mm 2 mps 684 mmHg 45%
    13:00 +27°C° 0.5 mm 2 mps 684 mmHg 44%
    14:00 +27°C° 0.5 mm 2 mps 684 mmHg 43%
    15:00 +27°C° 0.5 mm 2 mps 684 mmHg 43%
    16:00 +27°C° 0.6 mm 2 mps 684 mmHg 46%
    17:00 +26°C° 0.6 mm 2 mps 684 mmHg 49%
    18:00 +25°C° 0.6 mm 1 mps 684 mmHg 51%
    19:00 +24°C° 0.5 mm 1 mps 684 mmHg 55%
    20:00 +23°C° 0.5 mm 1 mps 684 mmHg 59%
    21:00 +21°C° 0.5 mm 1 mps 685 mmHg 62%
    22:00 +21°C° 0.2 mm 1 mps 685 mmHg 63%
    23:00 +20°C° 0.2 mm 1 mps 685 mmHg 64%

    26 May, Saturday

    Time Temperature Precipitation Wind Pressure Humidity
    00:00 +20°C° 0.2 mm 1 mps 685 mmHg 65%
    01:00 +19°C° 0.3 mm 1 mps 684 mmHg 66%
    02:00 +19°C° 0.3 mm 1 mps 684 mmHg 67%
    03:00 +19°C° 0.3 mm 1 mps 684 mmHg 68%
    04:00 +19°C° 0.1 mm 1 mps 685 mmHg 67%
    05:00 +20°C° 0.1 mm 1 mps 685 mmHg 66%
    06:00 +21°C° 0.1 mm 1 mps 685 mmHg 66%
    07:00 +22°C° 0.1 mm 1 mps 685 mmHg 60%
    08:00 +24°C° 0.1 mm 1 mps 685 mmHg 55%
    09:00 +25°C° 0.1 mm 1 mps 686 mmHg 49%
    10:00 +26°C° 0.3 mm 1 mps 685 mmHg 46%
    11:00 +28°C° 0.3 mm 2 mps 685 mmHg 43%
    12:00 +29°C° 0.3 mm 2 mps 685 mmHg 40%
    13:00 +29°C° 0.5 mm 2 mps 685 mmHg 39%
    14:00 +29°C° 0.5 mm 2 mps 685 mmHg 38%
    15:00 +30°C° 0.5 mm 2 mps 685 mmHg 37%
    16:00 +29°C° 0.7 mm 2 mps 685 mmHg 40%
    17:00 +28°C° 0.7 mm 2 mps 685 mmHg 43%
    18:00 +27°C° 0.7 mm 2 mps 685 mmHg 47%
    19:00 +26°C° 0.7 mm 2 mps 685 mmHg 52%
    20:00 +24°C° 0.7 mm 2 mps 686 mmHg 56%
    21:00 +21°C° 0.7 mm 2 mps 686 mmHg 61%
    22:00 +21°C° 0.6 mm 2 mps 687 mmHg 63%
    23:00 +21°C° 0.6 mm 1 mps 687 mmHg 66%

    27 May, Sunday

    Time Temperature Precipitation Wind Pressure Humidity
    00:00 +21°C° 0.6 mm 1 mps 687 mmHg 68%
    01:00 +20°C° 0.4 mm 1 mps 687 mmHg 69%
    02:00 +20°C° 0.4 mm 1 mps 687 mmHg 70%
    03:00 +19°C° 0.4 mm 1 mps 687 mmHg 71%
    04:00 +20°C° 0.3 mm 1 mps 687 mmHg 69%
    05:00 +20°C° 0.3 mm 1 mps 688 mmHg 67%
    06:00 +21°C° 0.3 mm 1 mps 688 mmHg 66%
    07:00 +23°C° 0.1 mm 1 mps 688 mmHg 60%
    08:00 +24°C° 0.1 mm 1 mps 689 mmHg 54%
    09:00 +26°C° 0.1 mm 1 mps 689 mmHg 47%
    10:00 +27°C° 0.1 mm 1 mps 689 mmHg 43%
    11:00 +28°C° 0.1 mm 1 mps 690 mmHg 39%
    12:00 +29°C° 0.1 mm 1 mps 690 mmHg 35%
    13:00 +29°C° 0.1 mm 1 mps 690 mmHg 34%
    14:00 +30°C° 0.1 mm 1 mps 690 mmHg 33%
    15:00 +30°C° 0.1 mm 2 mps 690 mmHg 32%
    16:00 +29°C° 0.2 mm 2 mps 690 mmHg 36%
    17:00 +28°C° 0.2 mm 3 mps 690 mmHg 40%
    18:00 +27°C° 0.2 mm 4 mps 690 mmHg 45%
    19:00 +25°C° 0.2 mm 3 mps 691 mmHg 51%
    20:00 +24°C° 0.2 mm 3 mps 691 mmHg 58%
    21:00 +21°C° 0.2 mm 3 mps 691 mmHg 64%
    22:00 +20°C° 0.1 mm 3 mps 691 mmHg 67%
    23:00 +19°C° 0.1 mm 2 mps 691 mmHg 69%

    28 May, Monday

    Time Temperature Precipitation Wind Pressure Humidity
    00:00 +18°C° 0.1 mm 2 mps 692 mmHg 71%
    01:00 +18°C° 0 mm 2 mps 691 mmHg 72%
    02:00 +18°C° 0 mm 2 mps 691 mmHg 73%
    03:00 +17°C° 0 mm 2 mps 691 mmHg 74%
    04:00 +19°C° 0 mm 1 mps 691 mmHg 72%
    05:00 +20°C° 0 mm 1 mps 691 mmHg 69%
    06:00 +20°C° 0 mm 1 mps 692 mmHg 67%
    07:00 +22°C° 0 mm 1 mps 692 mmHg 61%
    08:00 +24°C° 0 mm 2 mps 691 mmHg 54%
    09:00 +26°C° 0 mm 2 mps 691 mmHg 48%
    10:00 +27°C° 0 mm 2 mps 691 mmHg 44%
    11:00 +28°C° 0 mm 2 mps 691 mmHg 41%
    12:00 +30°C° 0 mm 2 mps 690 mmHg 37%
    13:00 +30°C° 0 mm 2 mps 690 mmHg 36%
    14:00 +31°C° 0 mm 2 mps 689 mmHg 34%
    15:00 +31°C° 0 mm 2 mps 689 mmHg 33%
    16:00 +30°C° 0.1 mm 2 mps 689 mmHg 36%
    17:00 +30°C° 0.1 mm 2 mps 689 mmHg 39%
    18:00 +29°C° 0.1 mm 2 mps 688 mmHg 42%
    19:00 +27°C° 0.3 mm 1 mps 689 mmHg 46%
    20:00 +25°C° 0.3 mm 1 mps 689 mmHg 51%
    21:00 +24°C° 0.3 mm 1 mps 689 mmHg 55%
    22:00 +23°C° 0.5 mm 1 mps 688 mmHg 58%
    23:00 +23°C° 0.5 mm 1 mps 688 mmHg 61%
    Show more